[[{"header":{"parameterUnit":"m.s-1","parameterCategory":1,"la1":30.2991,"la2":30.254,"lo1":-89.0895,"lo2":-89.0444,"dy":0.0017,"dx":0.0017,"nx":28,"ny":28,"refTime":"2024-07-18T09:00:00:Z","depth":0,"parameterNumber":2,"parameterNumberName":"U-component_of_WINDS"},"data":[0,0,0,0,0,0,0,0,0,0,0,0,0,0,0,0,0,0,0,0,0,0,0,0,0,0,0,0,0,0,0,0,0,0,0,0,0,0,0,0,0,0,0,0,0,0,0,0,0,0,0,0,0,0,0,0,0,0,0.4503,0.4504,0,0.4594,0.4595,0.4596,0.4681,0.4682,0.4683,0.4684,0.4776,0.4778,0.4779,0,0,0,0,0,0,0,0,0,0,0,0,0,0.4403,0.4405,0.4503,0.4504,0.4505,0.4594,0.4595,0.4596,0.4681,0.4682,0.4683,0.4685,0.4776,0.4778,0.4779,0,0,0,0,0,0,0,0,0,0,0,0,0,0.4465,0.4405,0.4503,0.4558,0.4564,0.4593,0.4595,0.4597,0.4681,0.4682,0.4684,0.4685,0.4775,0.4777,0.478,0.4761,0,0,0.4786,0.4787,0,0,0,0,0,0,0,0,0.4462,0.4469,0.4549,0.4554,0.4561,0.4628,0.4594,0.4652,0.468,0.4636,0.4684,0.4686,0.4725,0.4732,0.4745,0.4766,0.477,0.4786,0.4788,0.4789,0.4789,0,0,0,0,0,0,0,0.4457,0.4466,0.4539,0.455,0.4557,0.4579,0.4589,0.4605,0.4671,0.464,0.4647,0.4656,0.4729,0.4743,0.4748,0.4771,0.4786,0.4788,0.479,0.4791,0.4784,0.4783,0,0,0,0,0,0,0.4445,0.4461,0.4536,0.4542,0.4514,0.4579,0.4591,0.4605,0.4671,0.4683,0.4655,0.466,0.4739,0.4746,0.4752,0.4738,0.4789,0.4791,0.4792,0.4786,0.4784,0.4782,0,0,0,0,0,0,0.4442,0.445,0.4532,0.4503,0.4515,0.4579,0.4594,0.4606,0.462,0.4682,0.4694,0.4657,0.474,0.4749,0.4759,0.4742,0.4792,0.4794,0.4787,0.4785,0.4783,0.4707,0,0,0,0,0,0,0.4439,0.4449,0.4442,0.4503,0.4517,0.4538,0.4593,0.4606,0.4623,0.4631,0.4687,0.4698,0.4742,0.4755,0.4761,0.4746,0.4795,0.4789,0.4786,0.4784,0.4711,0.4702,0.4694,0,0,0,0,0,0.4435,0.4417,0.4442,0.445,0.451,0.4536,0.4545,0.4596,0.4622,0.4616,0.4656,0.4696,0.4742,0.4756,0.4763,0.4748,0.4791,0.4787,0.4784,0.4715,0.4704,0.4695,0,0,0,0,0,0,0.4352,0.4425,0.4454,0.4454,0.4489,0.4551,0.4545,0.4582,0.4609,0.4615,0.4677,0.4689,0.4693,0.4721,0.4735,0.4735,0.4772,0.477,0.4717,0.4707,0.4699,0.4693,0.4797,0,0,0,0,0,0.4334,0.4349,0.4412,0.4407,0.4423,0.4481,0.4494,0.4531,0.4569,0.4584,0.4625,0.466,0.4683,0.4696,0.472,0.4715,0.473,0.4708,0.47,0.4693,0.4691,0.4693,0.4685,0.4771,0.4771,0.4771,0,0,0.4296,0.4338,0.4344,0.4391,0.4422,0.4438,0.4492,0.4506,0.4518,0.4585,0.4599,0.463,0.4673,0.4677,0.468,0.47,0.467,0.4689,0.4682,0.4685,0.4689,0.4681,0.4673,0.4769,0.4769,0.477,0,0,0.4236,0.4269,0.4269,0.4299,0.4346,0.4385,0.4384,0.4442,0.4465,0.448,0.4531,0.4547,0.4584,0.4614,0.4633,0.4586,0.4625,0.4592,0.455,0.4551,0.4544,0.4539,0.4524,0.4518,0.459,0.459,0.459,0,0.4184,0.4209,0.4264,0.4275,0.4296,0.4358,0.4359,0.4386,0.4437,0.445,0.4472,0.4521,0.4555,0.4567,0.4556,0.4569,0.4572,0.4587,0.4541,0.4536,0.4531,0.4518,0.4512,0.4586,0.4586,0.4586,0.4587,0,0.4144,0.4161,0.4155,0.4205,0.4224,0.423,0.4287,0.4299,0.4334,0.4371,0.4386,0.4429,0.4464,0.4469,0.4502,0.4487,0.4498,0.4529,0.4568,0.4518,0.4507,0.4502,0.458,0.4581,0.4582,0.4583,0,0,0.4035,0.4116,0.4113,0.4137,0.4194,0.4208,0.4217,0.4252,0.4263,0.4297,0.4308,0.4338,0.4368,0.4391,0.4428,0.4429,0.4392,0.4461,0.4463,0.4449,0.4381,0.4359,0.4352,0.4418,0.4417,0.4416,0.4378,0,0.3986,0.4007,0.4058,0.4063,0.4081,0.4141,0.415,0.4185,0.422,0.4241,0.4279,0.4301,0.4337,0.4352,0.4355,0.4396,0.438,0.4399,0.443,0.443,0.4419,0.4346,0.4322,0.4284,0.4374,0.4373,0.4372,0,0.3932,0.3964,0.3971,0.4029,0.4039,0.4045,0.4083,0.4101,0.4143,0.4169,0.4194,0.4237,0.4251,0.4285,0.4307,0.4319,0.4334,0.4356,0.4356,0.4362,0.4399,0.4352,0.4272,0.4267,0.4366,0.4366,0.4367,0,0.3855,0.3899,0.391,0.3929,0.3995,0.3999,0.4027,0.4071,0.409,0.4122,0.4135,0.4168,0.4187,0.4212,0.4262,0.4282,0.4279,0.4317,0.4302,0.4301,0.43,0.43,0.4223,0.4305,0.4306,0.4306,0.4306,0,0.3797,0.38,0.3877,0.3884,0.389,0.3947,0.3952,0.3985,0.4024,0.4039,0.4092,0.4105,0.417,0.4191,0.423,0.4243,0.425,0.4272,0.4283,0.4269,0.4267,0.4281,0.4286,0.4304,0.4305,0.4305,0.4305,0,0.3712,0.3764,0.378,0.3843,0.3858,0.386,0.3914,0.3923,0.3962,0.398,0.3988,0.4048,0.4076,0.4128,0.4169,0.4196,0.4202,0.4219,0.4188,0.4195,0.4178,0.418,0.411,0.4105,0.4188,0.4187,0.4186,0,0.3673,0.3677,0.374,0.3755,0.3781,0.3803,0.3823,0.388,0.3899,0.3948,0.3952,0.3984,0.4013,0.4054,0.4101,0.4134,0.4154,0.4128,0.4159,0.4146,0.4157,0.4157,0.4159,0.4121,0.412,0.4119,0.4118,0,0.3599,0.3624,0.3651,0.3687,0.3709,0.374,0.3773,0.3782,0.3847,0.3865,0.3895,0.3917,0.396,0.3992,0.4032,0.4061,0.4101,0.4107,0.4106,0.4093,0.4076,0.4087,0.4171,0.4109,0.411,0.4111,0.4111,0.4111,0.3538,0.3545,0.3591,0.362,0.3651,0.3682,0.3695,0.3735,0.3761,0.3801,0.3833,0.386,0.3905,0.3962,0.3989,0.4012,0.4031,0.4028,0.4028,0.4027,0.4022,0.407,0.4019,0.4019,0.402,0.402,0.402,0,0.3468,0.3501,0.3527,0.3573,0.3596,0.3631,0.367,0.3687,0.3711,0.3748,0.3776,0.3811,0.3842,0.3892,0.3928,0.3936,0.3956,0.3944,0.3945,0.3952,0.4002,0.4001,0.3928,0.3928,0.3928,0.3928,0.3928,0.3928,0.3435,0.3451,0.3482,0.3514,0.3547,0.3575,0.3594,0.3623,0.3654,0.3691,0.3717,0.375,0.3794,0.3833,0.3864,0.3878,0.3889,0.3872,0.3892,0.3939,0.3948,0.3956,0.3955,0.3874,0.3874,0.384,0.384,0.384]},{"header":{"parameterUnit":"m.s-1","parameterCategory":1,"la1":30.2991,"la2":30.254,"lo1":-89.0895,"lo2":-89.0444,"dy":0.0017,"dx":0.0017,"nx":28,"ny":28,"refTime":"2024-07-18T09:00:00:Z","depth":0,"parameterNumber":3,"parameterNumberName":"V-component_of_WINDS"},"data":[0,0,0,0,0,0,0,0,0,0,0,0,0,0,0,0,0,0,0,0,0,0,0,0,0,0,0,0,0,0,0,0,0,0,0,0,0,0,0,0,0,0,0,0,0,0,0,0,0,0,0,0,0,0,0,0,0,0,3.6003,3.6002,0,3.5953,3.5953,3.5952,3.5924,3.5924,3.5924,3.5924,3.5871,3.587,3.5868,0,0,0,0,0,0,0,0,0,0,0,0,0,3.6069,3.6067,3.6003,3.6002,3.6001,3.5953,3.5953,3.5952,3.5924,3.5924,3.5924,3.5923,3.5871,3.587,3.5868,0,0,0,0,0,0,0,0,0,0,0,0,0,3.6032,3.6067,3.6003,3.5982,3.5979,3.5954,3.5953,3.5952,3.5924,3.5924,3.5924,3.5923,3.5872,3.587,3.5868,3.5859,0,0,3.5862,3.5861,0,0,0,0,0,0,0,0,3.6034,3.6029,3.5985,3.5983,3.598,3.5945,3.5957,3.5921,3.5924,3.5945,3.5924,3.5923,3.5895,3.5892,3.5883,3.5857,3.5854,3.5862,3.5861,3.586,3.5859,0,0,0,0,0,0,0,3.6036,3.6031,3.5983,3.5985,3.5982,3.5973,3.5968,3.595,3.5922,3.5943,3.5941,3.5935,3.5894,3.5885,3.5881,3.5854,3.5862,3.586,3.5859,3.5858,3.5814,3.5814,0,0,0,0,0,0,3.6043,3.6034,3.5985,3.5982,3.6007,3.5972,3.5966,3.5956,3.5922,3.5916,3.5936,3.5934,3.5888,3.5883,3.5879,3.5864,3.586,3.5858,3.5857,3.5814,3.5814,3.5814,0,0,0,0,0,0,3.6044,3.6039,3.5987,3.6007,3.6,3.5971,3.596,3.5955,3.5946,3.5916,3.5911,3.5931,3.5888,3.5882,3.5864,3.5862,3.5857,3.5855,3.5814,3.5814,3.5814,3.5836,0,0,0,0,0,0,3.6046,3.6039,3.6037,3.6007,3.5999,3.5973,3.596,3.5954,3.5943,3.5941,3.5911,3.5906,3.5887,3.5867,3.5862,3.5859,3.5854,3.5814,3.5814,3.5814,3.5835,3.5837,3.5838,0,0,0,0,0,3.6049,3.6045,3.6037,3.6031,3.5995,3.5973,3.5968,3.5948,3.5943,3.5939,3.5919,3.5906,3.5863,3.5865,3.5859,3.5856,3.5814,3.5814,3.5814,3.5835,3.5836,3.5838,0,0,0,0,0,0,3.6075,3.6041,3.6031,3.6018,3.5999,3.5969,3.5963,3.5951,3.5932,3.5931,3.5905,3.5899,3.5882,3.5868,3.587,3.5844,3.5837,3.5836,3.5855,3.5856,3.5857,3.5861,3.5852,0,0,0,0,0,3.6079,3.6066,3.6036,3.6027,3.6018,3.5992,3.5982,3.5968,3.5947,3.5938,3.5917,3.5896,3.5878,3.5866,3.5848,3.5833,3.5825,3.5828,3.5829,3.583,3.5829,3.5818,3.5818,3.5814,3.5814,3.5814,0,0,3.6088,3.6067,3.606,3.6032,3.6015,3.6,3.5986,3.5971,3.5959,3.5936,3.5917,3.5901,3.5875,3.5858,3.585,3.5845,3.5828,3.583,3.5832,3.583,3.5818,3.5818,3.5819,3.5814,3.5814,3.5814,0,0,3.6096,3.608,3.6069,3.6053,3.6028,3.601,3.6008,3.5979,3.5967,3.5948,3.593,3.5914,3.5884,3.5866,3.5852,3.5851,3.5837,3.5845,3.5852,3.5841,3.5842,3.5842,3.5839,3.5839,3.5845,3.5845,3.5845,0,3.6109,3.6087,3.6066,3.6051,3.6038,3.6016,3.6005,3.5989,3.5959,3.595,3.5946,3.5905,3.5886,3.5863,3.5863,3.5854,3.5848,3.5849,3.5843,3.5843,3.5843,3.584,3.584,3.5846,3.5846,3.5845,3.5845,0,3.6104,3.6088,3.6083,3.6054,3.6041,3.6028,3.6003,3.5991,3.5978,3.596,3.5939,3.5916,3.5891,3.5885,3.5872,3.5859,3.5857,3.5849,3.5841,3.5845,3.5842,3.5841,3.5847,3.5847,3.5847,3.5846,0,0,3.6127,3.6086,3.6084,3.607,3.604,3.6027,3.6012,3.5988,3.5978,3.5957,3.5943,3.5916,3.5907,3.5892,3.5876,3.5867,3.5864,3.5858,3.5857,3.5859,3.5846,3.5852,3.5852,3.5855,3.5855,3.5854,3.5848,0,3.613,3.6103,3.6082,3.6063,3.6047,3.6025,3.6011,3.599,3.5973,3.5956,3.5936,3.5917,3.5908,3.5898,3.5888,3.5867,3.5861,3.5867,3.5839,3.5839,3.5846,3.585,3.5857,3.5852,3.5847,3.5846,3.5846,0,3.6129,3.6109,3.6088,3.6058,3.605,3.6039,3.6014,3.5998,3.5973,3.5961,3.5943,3.5926,3.5907,3.5901,3.5874,3.5878,3.5865,3.5853,3.5852,3.5848,3.5842,3.5845,3.585,3.5849,3.5845,3.5845,3.5845,0,3.6146,3.6114,3.6097,3.6086,3.605,3.6042,3.6027,3.6002,3.5988,3.5965,3.5956,3.5932,3.5918,3.5899,3.5875,3.5873,3.5848,3.5841,3.5836,3.5837,3.5832,3.5832,3.5834,3.5825,3.5826,3.5826,3.5826,0,3.6151,3.6138,3.6104,3.6093,3.6078,3.6053,3.6038,3.6021,3.5998,3.5982,3.5961,3.5946,3.5916,3.5897,3.5878,3.5857,3.5851,3.5839,3.5834,3.5841,3.5842,3.5832,3.5831,3.5825,3.5825,3.5825,3.5825,0,3.6167,3.6144,3.6124,3.6091,3.6083,3.6073,3.6044,3.6032,3.6013,3.5993,3.5986,3.5956,3.5932,3.5907,3.5874,3.5861,3.584,3.5834,3.5849,3.5846,3.5842,3.5842,3.5836,3.5833,3.5828,3.5828,3.5828,0,3.6171,3.6161,3.6127,3.6116,3.6101,3.6082,3.6068,3.6042,3.6028,3.5997,3.5988,3.5962,3.5941,3.5903,3.5877,3.5851,3.5843,3.5843,3.5839,3.5845,3.5841,3.5842,3.584,3.5844,3.5844,3.5844,3.5844,0,3.618,3.6168,3.6149,3.6125,3.6108,3.6088,3.6067,3.6058,3.6028,3.6012,3.5988,3.5971,3.5937,3.5911,3.5882,3.5864,3.5848,3.5846,3.5843,3.5849,3.5858,3.5851,3.5851,3.5846,3.5846,3.5846,3.5846,3.5846,3.6189,3.6178,3.6152,3.6131,3.6112,3.6092,3.6078,3.6057,3.6037,3.6008,3.5994,3.5969,3.5941,3.59,3.5883,3.5861,3.5857,3.5853,3.5852,3.5851,3.5852,3.5862,3.5856,3.5856,3.5856,3.5856,3.5856,0,3.6195,3.6177,3.6158,3.6128,3.6111,3.6098,3.6074,3.6059,3.6038,3.6014,3.5993,3.5963,3.5937,3.5909,3.5881,3.5869,3.5861,3.5863,3.5863,3.5858,3.5859,3.5863,3.587,3.587,3.587,3.587,3.587,3.587,3.6196,3.6176,3.6162,3.6132,3.6113,3.6089,3.6076,3.6057,3.6037,3.6006,3.5984,3.5966,3.594,3.5909,3.5884,3.5876,3.5866,3.587,3.5859,3.586,3.5859,3.5858,3.5862,3.5868,3.5868,3.5861,3.5861,3.5861]}]]